START_TIME,STEP,MOV.,M35,t_acc.,PL05,t_acc.,PL06,t_acc.,PL07,t_acc.
1979-07-20 18:00:23.660 ,0,1,1.,4.8,312.,4.8,44.,4.8,15.,4.8
1979-07-20 18:00:28.460 ,0,1,0.,4.8,312.,4.8,48.,4.8,8.,4.8
1979-07-20 18:00:33.260 ,0,1,1.,4.8,82.,4.8,16.,4.8,10.,4.8
1979-07-20 18:00:38.060 ,0,1,0.,4.8,28.,4.8,7.,4.8,4.,4.8
1979-07-20 18:00:42.860 ,0,1,0.,4.8,18.,4.8,1.,4.8,2.,4.8
1979-07-20 18:00:47.660 ,4,1,0.,4.8,30.,4.8,7.,4.8,4.,4.8
1979-07-20 18:00:52.460 ,4,1,1.,4.8,96.,4.8,30.,4.8,4.,4.8
1979-07-20 18:00:57.260 ,4,1,2.,4.8,360.,4.8,56.,4.8,12.,4.8
1979-07-20 18:01:02.060 ,4,1,1.,4.8,416.,4.8,53.,4.8,7.,4.8
1979-07-20 18:01:06.860 ,4,1,0.,4.8,220.,4.8,37.,4.8,8.,4.8
1979-07-20 18:01:11.660 ,7,1,0.,4.8,19.,4.8,4.,4.8,0.,4.8
1979-07-20 18:01:16.460 ,7,1,0.,4.8,16.,4.8,5.,4.8,2.,4.8
1979-07-20 18:01:21.260 ,7,1,0.,4.8,10.,4.8,2.,4.8,2.,4.8
1979-07-20 18:01:26.060 ,7,1,0.,4.8,4.,4.8,1.,4.8,1.,4.8
1979-07-20 18:01:30.860 ,7,1,0.,4.8,0.,4.8,1.,4.8,0.,4.8
1979-07-20 18:01:35.660 ,3,1,0.,4.8,4.,4.8,0.,4.8,1.,4.8
1979-07-20 18:01:40.460 ,3,1,0.,4.8,16.,4.8,2.,4.8,3.,4.8
1979-07-20 18:01:45.260 ,3,1,0.,4.8,13.,4.8,5.,4.8,2.,4.8
1979-07-20 18:01:50.060 ,3,1,0.,4.8,42.,4.8,11.,4.8,1.,4.8
1979-07-20 18:01:54.860 ,3,1,0.,4.8,288.,4.8,34.,4.8,11.,4.8
1979-07-20 18:01:59.660 ,0,1,0.,4.8,504.,4.8,78.,4.8,18.,4.8
1979-07-20 18:02:04.460 ,0,1,1.,4.8,448.,4.8,54.,4.8,19.,4.8
1979-07-20 18:02:09.260 ,0,1,1.,4.8,120.,4.8,32.,4.8,11.,4.8
1979-07-20 18:02:14.060 ,0,1,0.,4.8,36.,4.8,12.,4.8,3.,4.8
1979-07-20 18:02:18.860 ,0,1,0.,4.8,17.,4.8,3.,4.8,1.,4.8
1979-07-20 18:02:23.660 ,4,1,0.,4.8,47.,4.8,8.,4.8,4.,4.8
1979-07-20 18:02:28.460 ,4,1,0.,4.8,144.,4.8,33.,4.8,7.,4.8
1979-07-20 18:02:33.260 ,4,1,1.,4.8,560.,4.8,80.,4.8,15.,4.8
1979-07-20 18:02:38.060 ,4,1,1.,4.8,544.,4.8,62.,4.8,11.,4.8
1979-07-20 18:02:42.860 ,4,1,2.,4.8,296.,4.8,44.,4.8,5.,4.8
1979-07-20 18:02:47.660 ,7,1,0.,4.8,64.,4.8,11.,4.8,5.,4.8
1979-07-20 18:02:52.460 ,7,1,0.,4.8,18.,4.8,6.,4.8,3.,4.8
1979-07-20 18:02:57.260 ,7,1,0.,4.8,14.,4.8,2.,4.8,1.,4.8
1979-07-20 18:03:02.060 ,7,1,0.,4.8,2.,4.8,3.,4.8,0.,4.8
1979-07-20 18:03:06.860 ,7,1,0.,4.8,0.,4.8,0.,4.8,0.,4.8
1979-07-20 18:03:11.660 ,3,1,0.,4.8,3.,4.8,0.,4.8,0.,4.8
1979-07-20 18:03:16.460 ,3,1,0.,4.8,13.,4.8,2.,4.8,3.,4.8
1979-07-20 18:03:21.260 ,3,1,0.,4.8,20.,4.8,3.,4.8,1.,4.8
1979-07-20 18:03:26.060 ,3,1,0.,4.8,70.,4.8,17.,4.8,6.,4.8
1979-07-20 18:03:30.860 ,3,1,0.,4.8,344.,4.8,53.,4.8,10.,4.8
1979-07-20 18:03:35.660 ,0,1,0.,4.8,624.,4.8,72.,4.8,20.,4.8
1979-07-20 18:03:40.460 ,0,1,1.,4.8,640.,4.8,88.,4.8,17.,4.8
1979-07-20 18:03:45.260 ,0,1,0.,4.8,148.,4.8,39.,4.8,7.,4.8
1979-07-20 18:03:50.060 ,0,1,0.,4.8,49.,4.8,6.,4.8,6.,4.8
1979-07-20 18:03:54.860 ,0,1,0.,4.8,20.,4.8,4.,4.8,1.,4.8
1979-07-20 18:03:59.660 ,4,1,0.,4.8,43.,4.8,9.,4.8,3.,4.8
1979-07-20 18:04:04.460 ,4,1,0.,4.8,140.,4.8,35.,4.8,7.,4.8
1979-07-20 18:04:09.260 ,4,1,1.,4.8,688.,4.8,86.,4.8,19.,4.8
1979-07-20 18:04:14.060 ,4,1,0.,4.8,704.,4.8,96.,4.8,18.,4.8
1979-07-20 18:04:18.860 ,4,1,0.,4.8,400.,4.8,43.,4.8,13.,4.8
1979-07-20 18:04:23.660 ,7,1,0.,4.8,88.,4.8,14.,4.8,4.,4.8
1979-07-20 18:04:28.460 ,7,1,0.,4.8,28.,4.8,4.,4.8,3.,4.8
1979-07-20 18:04:33.260 ,7,1,0.,4.8,13.,4.8,4.,4.8,1.,4.8
1979-07-20 18:04:38.060 ,7,1,0.,4.8,5.,4.8,1.,4.8,0.,4.8
1979-07-20 18:04:42.860 ,7,1,0.,4.8,1.,4.8,0.,4.8,1.,4.8
1979-07-20 18:04:47.660 ,3,1,0.,4.8,2.,4.8,0.,4.8,0.,4.8
1979-07-20 18:04:52.460 ,3,1,0.,4.8,18.,4.8,4.,4.8,3.,4.8
1979-07-20 18:04:57.260 ,3,1,0.,4.8,24.,4.8,7.,4.8,4.,4.8
1979-07-20 18:05:02.060 ,3,1,0.,4.8,98.,4.8,10.,4.8,4.,4.8
1979-07-20 18:05:06.860 ,3,1,0.,4.8,472.,4.8,62.,4.8,9.,4.8
1979-07-20 18:05:11.660 ,0,1,0.,4.8,736.,4.8,106.,4.8,19.,4.8
1979-07-20 18:05:16.460 ,0,1,0.,4.8,704.,4.8,86.,4.8,18.,4.8
1979-07-20 18:05:21.260 ,0,1,1.,4.8,152.,4.8,26.,4.8,9.,4.8
1979-07-20 18:05:26.060 ,0,1,0.,4.8,46.,4.8,14.,4.8,4.,4.8
1979-07-20 18:05:30.860 ,0,1,0.,4.8,12.,4.8,3.,4.8,2.,4.8
1979-07-20 18:05:35.660 ,0,0,0.,4.8,39.,4.8,7.,4.8,4.,4.8
1979-07-20 18:05:40.460 ,0,0,0.,4.8,132.,4.8,34.,4.8,11.,4.8
1979-07-20 18:05:45.260 ,0,0,0.,4.8,704.,4.8,78.,4.8,18.,4.8
1979-07-20 18:05:50.060 ,0,0,0.,4.8,720.,4.8,88.,4.8,16.,4.8
1979-07-20 18:05:54.860 ,0,0,0.,4.8,496.,4.8,55.,4.8,13.,4.8
1979-07-20 18:05:59.660 ,0,0,0.,4.8,128.,4.8,8.,4.8,5.,4.8
1979-07-20 18:06:04.460 ,0,0,0.,4.8,25.,4.8,3.,4.8,5.,4.8
1979-07-20 18:06:09.260 ,0,0,0.,4.8,13.,4.8,3.,4.8,0.,4.8
1979-07-20 18:06:14.060 ,0,0,0.,4.8,4.,4.8,1.,4.8,0.,4.8
1979-07-20 18:06:18.860 ,0,0,0.,4.8,1.,4.8,0.,4.8,0.,4.8
1979-07-20 18:06:23.660 ,5,0,0.,4.8,5.,4.8,1.,4.8,0.,4.8
1979-07-20 18:06:28.460 ,5,0,0.,4.8,14.,4.8,4.,4.8,2.,4.8
1979-07-20 18:06:33.260 ,5,0,0.,4.8,34.,4.8,7.,4.8,3.,4.8
1979-07-20 18:06:38.060 ,5,0,0.,4.8,27.,4.8,9.,4.8,1.,4.8
1979-07-20 18:06:42.860 ,5,0,0.,4.8,25.,4.8,5.,4.8,0.,4.8
1979-07-20 18:06:47.660 ,5,0,0.,4.8,24.,4.8,4.,4.8,1.,4.8
1979-07-20 18:06:52.460 ,5,0,0.,4.8,20.,4.8,7.,4.8,5.,4.8
1979-07-20 18:06:57.260 ,5,0,0.,4.8,20.,4.8,3.,4.8,1.,4.8
1979-07-20 18:07:02.060 ,5,0,0.,4.8,29.,4.8,3.,4.8,4.,4.8
1979-07-20 18:07:06.860 ,5,0,0.,4.8,39.,4.8,4.,4.8,3.,4.8
1979-07-20 18:07:11.660 ,0,0,0.,4.8,23.,4.8,9.,4.8,4.,4.8
1979-07-20 18:07:16.460 ,0,0,0.,4.8,32.,4.8,8.,4.8,1.,4.8
1979-07-20 18:07:21.260 ,0,0,,0,,0,,0,,0
1979-07-20 18:07:26.060 ,0,0,,0,,0,,0,,0
1979-07-20 18:07:30.860 ,0,0,,0,,0,,0,,0
1979-07-20 18:07:35.660 ,0,0,,0,,0,,0,,0
1979-07-20 18:07:40.460 ,0,0,,0,,0,,0,,0
1979-07-20 18:07:45.260 ,0,0,,0,,0,,0,,0
1979-07-20 18:07:50.060 ,0,0,,0,,0,,0,,0
1979-07-20 18:07:54.860 ,0,0,,0,,0,,0,,0
1979-07-20 18:08:32.660 ,0,0,,0,,0,,0,,0
1979-07-20 18:08:37.460 ,0,0,,0,,0,,0,,0
1979-07-20 18:08:42.260 ,0,0,0.,4.8,592.,4.8,64.,4.8,21.,4.8
1979-07-20 18:08:47.060 ,0,0,0.,4.8,592.,4.8,64.,4.8,19.,4.8
1979-07-20 18:08:51.860 ,0,0,0.,4.8,608.,4.8,86.,4.8,13.,4.8
1979-07-20 18:08:47.660 ,2,0,0.,4.8,576.,4.8,76.,4.8,15.,4.8
1979-07-20 18:08:52.460 ,2,0,0.,4.8,560.,4.8,78.,4.8,21.,4.8
1979-07-20 18:08:57.260 ,2,0,0.,4.8,416.,4.8,54.,4.8,12.,4.8
1979-07-20 18:09:02.060 ,2,0,0.,4.8,432.,4.8,55.,4.8,16.,4.8
1979-07-20 18:09:06.860 ,2,0,0.,4.8,416.,4.8,46.,4.8,18.,4.8
1979-07-20 18:09:11.660 ,2,0,0.,4.8,392.,4.8,62.,4.8,19.,4.8
1979-07-20 18:09:16.460 ,2,0,0.,4.8,384.,4.8,56.,4.8,17.,4.8
1979-07-20 18:09:21.260 ,2,0,0.,4.8,400.,4.8,62.,4.8,16.,4.8
1979-07-20 18:09:26.060 ,2,0,0.,4.8,408.,4.8,52.,4.8,13.,4.8
1979-07-20 18:09:30.860 ,2,0,0.,4.8,400.,4.8,51.,4.8,19.,4.8
1979-07-20 18:09:35.660 ,1,0,1.,4.8,376.,4.8,45.,4.8,11.,4.8
1979-07-20 18:09:40.460 ,1,0,0.,4.8,384.,4.8,50.,4.8,9.,4.8
1979-07-20 18:09:45.260 ,1,0,0.,4.8,70.,4.8,18.,4.8,7.,4.8
1979-07-20 18:09:50.060 ,1,0,0.,4.8,51.,4.8,14.,4.8,5.,4.8
1979-07-20 18:09:54.860 ,1,0,0.,4.8,68.,4.8,7.,4.8,10.,4.8
1979-07-20 18:09:59.660 ,1,0,0.,4.8,59.,4.8,18.,4.8,6.,4.8
1979-07-20 18:10:04.460 ,1,0,0.,4.8,39.,4.8,11.,4.8,14.,4.8
1979-07-20 18:10:09.260 ,1,0,0.,4.8,49.,4.8,21.,4.8,6.,4.8
1979-07-20 18:10:14.060 ,1,0,0.,4.8,48.,4.8,16.,4.8,9.,4.8
1979-07-20 18:10:18.860 ,1,0,0.,4.8,44.,4.8,9.,4.8,8.,4.8
1979-07-20 18:10:23.660 ,0,0,0.,4.8,56.,4.8,15.,4.8,8.,4.8
1979-07-20 18:10:28.460 ,0,0,0.,4.8,45.,4.8,19.,4.8,5.,4.8
1979-07-20 18:10:33.260 ,0,0,0.,4.8,16.,4.8,5.,4.8,3.,4.8
1979-07-20 18:10:38.060 ,0,0,0.,4.8,23.,4.8,2.,4.8,0.,4.8
1979-07-20 18:10:42.860 ,0,0,0.,4.8,10.,4.8,2.,4.8,1.,4.8
1979-07-20 18:10:47.660 ,0,0,0.,4.8,15.,4.8,1.,4.8,2.,4.8
1979-07-20 18:10:52.460 ,0,0,0.,4.8,13.,4.8,2.,4.8,1.,4.8
1979-07-20 18:10:57.260 ,0,0,0.,4.8,12.,4.8,5.,4.8,2.,4.8
1979-07-20 18:11:02.060 ,0,0,0.,4.8,12.,4.8,4.,4.8,0.,4.8
1979-07-20 18:11:06.860 ,0,0,0.,4.8,17.,4.8,5.,4.8,0.,4.8
1979-07-20 18:11:11.660 ,0,0,0.,4.8,21.,4.8,4.,4.8,1.,4.8
1979-07-20 18:11:16.460 ,0,0,0.,4.8,12.,4.8,3.,4.8,2.,4.8
1979-07-20 18:11:21.260 ,0,0,0.,4.8,15.,4.8,1.,4.8,2.,4.8
1979-07-20 18:11:26.060 ,0,0,0.,4.8,12.,4.8,1.,4.8,0.,4.8
1979-07-20 18:11:30.860 ,0,0,0.,4.8,14.,4.8,2.,4.8,0.,4.8
1979-07-20 18:11:35.660 ,0,0,0.,4.8,13.,4.8,2.,4.8,1.,4.8
1979-07-20 18:11:40.460 ,0,0,0.,4.8,19.,4.8,4.,4.8,1.,4.8
1979-07-20 18:11:45.260 ,0,0,0.,4.8,8.,4.8,3.,4.8,4.,4.8
1979-07-20 18:11:50.060 ,0,0,0.,4.8,20.,4.8,5.,4.8,2.,4.8
1979-07-20 18:11:54.860 ,0,0,0.,4.8,11.,4.8,3.,4.8,3.,4.8
1979-07-20 18:11:59.660 ,1,0,0.,4.8,17.,4.8,4.,4.8,0.,4.8
1979-07-20 18:12:04.460 ,1,0,0.,4.8,15.,4.8,4.,4.8,1.,4.8
1979-07-20 18:12:09.260 ,1,0,0.,4.8,66.,4.8,17.,4.8,7.,4.8
1979-07-20 18:12:14.060 ,1,0,0.,4.8,52.,4.8,19.,4.8,8.,4.8
1979-07-20 18:12:18.860 ,1,0,0.,4.8,72.,4.8,22.,4.8,4.,4.8
1979-07-20 18:12:23.660 ,1,0,0.,4.8,54.,4.8,17.,4.8,11.,4.8
1979-07-20 18:12:28.460 ,1,0,0.,4.8,62.,4.8,13.,4.8,4.,4.8
1979-07-20 18:12:33.260 ,1,0,0.,4.8,59.,4.8,18.,4.8,12.,4.8
1979-07-20 18:12:38.060 ,1,0,0.,4.8,78.,4.8,11.,4.8,6.,4.8
1979-07-20 18:12:42.860 ,1,0,0.,4.8,62.,4.8,24.,4.8,3.,4.8
1979-07-20 18:12:47.660 ,2,0,0.,4.8,61.,4.8,11.,4.8,10.,4.8
1979-07-20 18:12:52.460 ,2,0,0.,4.8,60.,4.8,22.,4.8,8.,4.8
1979-07-20 18:12:57.260 ,2,0,0.,4.8,272.,4.8,46.,4.8,12.,4.8
1979-07-20 18:13:02.060 ,2,0,0.,4.8,264.,4.8,49.,4.8,12.,4.8
1979-07-20 18:13:06.860 ,2,0,1.,4.8,280.,4.8,38.,4.8,10.,4.8
1979-07-20 18:13:11.660 ,2,0,0.,4.8,280.,4.8,42.,4.8,12.,4.8
1979-07-20 18:13:16.460 ,2,0,1.,4.8,252.,4.8,30.,4.8,8.,4.8
1979-07-20 18:13:21.260 ,2,0,1.,4.8,272.,4.8,44.,4.8,12.,4.8
1979-07-20 18:13:26.060 ,2,0,1.,4.8,264.,4.8,26.,4.8,12.,4.8
1979-07-20 18:13:30.860 ,2,0,0.,4.8,256.,4.8,47.,4.8,9.,4.8
1979-07-20 18:13:35.660 ,3,0,1.,4.8,288.,4.8,50.,4.8,9.,4.8
1979-07-20 18:13:40.460 ,3,0,0.,4.8,264.,4.8,39.,4.8,13.,4.8
1979-07-20 18:13:45.260 ,3,0,0.,4.8,440.,4.8,57.,4.8,17.,4.8
1979-07-20 18:13:50.060 ,3,0,0.,4.8,464.,4.8,70.,4.8,19.,4.8
1979-07-20 18:13:54.860 ,3,0,1.,4.8,496.,4.8,72.,4.8,25.,4.8
1979-07-20 18:13:59.660 ,3,0,1.,4.8,504.,4.8,86.,4.8,22.,4.8
1979-07-20 18:14:04.460 ,3,0,0.,4.8,544.,4.8,82.,4.8,20.,4.8
1979-07-20 18:14:09.260 ,3,0,0.,4.8,608.,4.8,70.,4.8,16.,4.8
1979-07-20 18:14:14.060 ,3,0,1.,4.8,672.,4.8,90.,4.8,14.,4.8
1979-07-20 18:14:18.860 ,3,0,2.,4.8,688.,4.8,90.,4.8,27.,4.8
1979-07-20 18:14:23.660 ,4,0,2.,4.8,688.,4.8,96.,4.8,18.,4.8
1979-07-20 18:14:28.460 ,4,0,1.,4.8,768.,4.8,76.,4.8,23.,4.8
1979-07-20 18:14:33.260 ,4,0,0.,4.8,164.,4.8,33.,4.8,2.,4.8
1979-07-20 18:14:38.060 ,4,0,1.,4.8,164.,4.8,24.,4.8,5.,4.8
1979-07-20 18:14:42.860 ,4,0,0.,4.8,136.,4.8,24.,4.8,4.,4.8
1979-07-20 18:14:47.660 ,4,0,0.,4.8,140.,4.8,24.,4.8,6.,4.8
1979-07-20 18:14:52.460 ,4,0,0.,4.8,128.,4.8,22.,4.8,6.,4.8
1979-07-20 18:14:57.260 ,4,0,0.,4.8,132.,4.8,19.,4.8,3.,4.8
1979-07-20 18:15:02.060 ,4,0,0.,4.8,156.,4.8,22.,4.8,7.,4.8
1979-07-20 18:15:06.860 ,4,0,0.,4.8,132.,4.8,17.,4.8,7.,4.8
1979-07-20 18:15:11.660 ,5,0,0.,4.8,128.,4.8,18.,4.8,6.,4.8
1979-07-20 18:15:16.460 ,5,0,0.,4.8,122.,4.8,12.,4.8,5.,4.8
1979-07-20 18:15:21.260 ,5,0,0.,4.8,31.,4.8,10.,4.8,2.,4.8
1979-07-20 18:15:26.060 ,5,0,0.,4.8,29.,4.8,7.,4.8,1.,4.8
1979-07-20 18:15:30.860 ,5,0,0.,4.8,24.,4.8,4.,4.8,2.,4.8
1979-07-20 18:15:35.660 ,5,0,0.,4.8,33.,4.8,5.,4.8,2.,4.8
1979-07-20 18:15:40.460 ,5,0,1.,4.8,35.,4.8,3.,4.8,1.,4.8
1979-07-20 18:15:45.260 ,5,0,0.,4.8,32.,4.8,5.,4.8,3.,4.8
1979-07-20 18:15:50.060 ,5,0,0.,4.8,35.,4.8,6.,4.8,0.,4.8
1979-07-20 18:15:54.860 ,5,0,0.,4.8,29.,4.8,6.,4.8,3.,4.8
1979-07-20 18:15:59.660 ,6,0,0.,4.8,32.,4.8,4.,4.8,1.,4.8
1979-07-20 18:16:04.460 ,6,0,1.,4.8,32.,4.8,6.,4.8,2.,4.8
1979-07-20 18:16:09.260 ,6,0,0.,4.8,14.,4.8,3.,4.8,1.,4.8
1979-07-20 18:16:14.060 ,6,0,0.,4.8,19.,4.8,7.,4.8,4.,4.8
1979-07-20 18:16:18.860 ,6,0,0.,4.8,18.,4.8,6.,4.8,2.,4.8
1979-07-20 18:16:23.660 ,6,0,0.,4.8,17.,4.8,4.,4.8,0.,4.8
1979-07-20 18:16:28.460 ,6,0,0.,4.8,16.,4.8,3.,4.8,1.,4.8
1979-07-20 18:16:33.260 ,6,0,0.,4.8,12.,4.8,5.,4.8,0.,4.8
1979-07-20 18:16:38.060 ,6,0,0.,4.8,6.,4.8,1.,4.8,1.,4.8
1979-07-20 18:16:42.860 ,6,0,0.,4.8,13.,4.8,7.,4.8,0.,4.8
1979-07-20 18:16:47.660 ,7,0,0.,4.8,12.,4.8,2.,4.8,2.,4.8
1979-07-20 18:16:52.460 ,7,0,0.,4.8,16.,4.8,3.,4.8,2.,4.8
1979-07-20 18:16:57.260 ,7,0,0.,4.8,1.,4.8,0.,4.8,0.,4.8
1979-07-20 18:17:02.060 ,7,0,0.,4.8,0.,4.8,0.,4.8,0.,4.8
1979-07-20 18:17:06.860 ,7,0,0.,4.8,1.,4.8,0.,4.8,0.,4.8
1979-07-20 18:17:11.660 ,7,0,0.,4.8,2.,4.8,0.,4.8,0.,4.8
1979-07-20 18:17:16.460 ,7,0,0.,4.8,1.,4.8,0.,4.8,1.,4.8
1979-07-20 18:17:21.260 ,7,0,0.,4.8,1.,4.8,0.,4.8,0.,4.8
1979-07-20 18:17:26.060 ,7,0,0.,4.8,3.,4.8,0.,4.8,0.,4.8
1979-07-20 18:17:30.860 ,7,0,0.,4.8,0.,4.8,0.,4.8,0.,4.8
1979-07-20 18:17:35.660 ,7,0,0.,4.8,2.,4.8,0.,4.8,0.,4.8
1979-07-20 18:17:40.460 ,7,0,0.,4.8,0.,4.8,0.,4.8,0.,4.8
1979-07-20 18:17:45.260 ,7,0,0.,4.8,1.,4.8,1.,4.8,0.,4.8
1979-07-20 18:17:50.060 ,7,0,0.,4.8,1.,4.8,0.,4.8,1.,4.8
1979-07-20 18:17:54.860 ,7,0,0.,4.8,0.,4.8,1.,4.8,0.,4.8
1979-07-20 18:17:59.660 ,7,0,0.,4.8,0.,4.8,0.,4.8,0.,4.8
1979-07-20 18:18:04.460 ,7,0,0.,4.8,0.,4.8,0.,4.8,0.,4.8
1979-07-20 18:18:09.260 ,7,0,0.,4.8,0.,4.8,0.,4.8,0.,4.8
1979-07-20 18:18:14.060 ,7,0,0.,4.8,3.,4.8,0.,4.8,0.,4.8
1979-07-20 18:18:18.860 ,7,0,0.,4.8,2.,4.8,0.,4.8,0.,4.8
1979-07-20 18:18:23.660 ,6,0,0.,4.8,1.,4.8,1.,4.8,0.,4.8
1979-07-20 18:18:28.460 ,6,0,0.,4.8,0.,4.8,0.,4.8,0.,4.8
1979-07-20 18:18:33.260 ,6,0,0.,4.8,5.,4.8,2.,4.8,0.,4.8
1979-07-20 18:18:38.060 ,6,0,0.,4.8,12.,4.8,2.,4.8,3.,4.8
1979-07-20 18:18:42.860 ,6,0,0.,4.8,8.,4.8,4.,4.8,2.,4.8
1979-07-20 18:18:47.660 ,6,0,0.,4.8,9.,4.8,1.,4.8,2.,4.8
1979-07-20 18:18:52.460 ,6,0,0.,4.8,6.,4.8,0.,4.8,3.,4.8
1979-07-20 18:18:57.260 ,6,0,0.,4.8,11.,4.8,1.,4.8,2.,4.8
1979-07-20 18:19:02.060 ,6,0,0.,4.8,7.,4.8,1.,4.8,3.,4.8
1979-07-20 18:19:06.860 ,6,0,0.,4.8,9.,4.8,4.,4.8,0.,4.8
1979-07-20 18:19:11.660 ,5,0,0.,4.8,10.,4.8,2.,4.8,1.,4.8
1979-07-20 18:19:16.460 ,5,0,0.,4.8,9.,4.8,0.,4.8,2.,4.8
1979-07-20 18:19:21.260 ,5,0,0.,4.8,11.,4.8,2.,4.8,2.,4.8
1979-07-20 18:19:26.060 ,5,0,0.,4.8,7.,4.8,4.,4.8,1.,4.8
1979-07-20 18:19:30.860 ,5,0,0.,4.8,12.,4.8,8.,4.8,3.,4.8
1979-07-20 18:19:35.660 ,5,0,0.,4.8,11.,4.8,4.,4.8,0.,4.8
1979-07-20 18:19:40.460 ,5,0,0.,4.8,5.,4.8,7.,4.8,1.,4.8
1979-07-20 18:19:45.260 ,5,0,0.,4.8,18.,4.8,2.,4.8,3.,4.8
1979-07-20 18:19:50.060 ,5,0,0.,4.8,7.,4.8,2.,4.8,3.,4.8
1979-07-20 18:19:54.860 ,5,0,0.,4.8,8.,4.8,2.,4.8,2.,4.8
1979-07-20 18:19:59.660 ,4,0,0.,4.8,7.,4.8,8.,4.8,2.,4.8
1979-07-20 18:20:04.460 ,4,0,0.,4.8,9.,4.8,2.,4.8,2.,4.8
1979-07-20 18:20:09.260 ,4,0,0.,4.8,10.,4.8,0.,4.8,1.,4.8
1979-07-20 18:20:14.060 ,4,0,0.,4.8,12.,4.8,1.,4.8,3.,4.8
1979-07-20 18:20:18.860 ,4,0,0.,4.8,9.,4.8,7.,4.8,3.,4.8
1979-07-20 18:20:23.660 ,4,0,0.,4.8,11.,4.8,5.,4.8,1.,4.8
1979-07-20 18:20:28.460 ,4,0,0.,4.8,14.,4.8,4.,4.8,1.,4.8
1979-07-20 18:20:33.260 ,4,0,0.,4.8,14.,4.8,2.,4.8,2.,4.8
1979-07-20 18:20:38.060 ,4,0,0.,4.8,17.,4.8,4.,4.8,4.,4.8
1979-07-20 18:20:42.860 ,4,0,0.,4.8,13.,4.8,2.,4.8,2.,4.8
1979-07-20 18:20:47.660 ,3,0,0.,4.8,9.,4.8,2.,4.8,1.,4.8
1979-07-20 18:20:52.460 ,3,0,0.,4.8,13.,4.8,5.,4.8,3.,4.8
1979-07-20 18:20:57.260 ,3,0,1.,4.8,96.,4.8,24.,4.8,7.,4.8
1979-07-20 18:21:02.060 ,3,0,1.,4.8,84.,4.8,28.,4.8,6.,4.8
1979-07-20 18:21:06.860 ,3,0,1.,4.8,84.,4.8,34.,4.8,9.,4.8
1979-07-20 18:21:11.660 ,3,0,0.,4.8,94.,4.8,26.,4.8,10.,4.8
1979-07-20 18:21:16.460 ,3,0,0.,4.8,100.,4.8,30.,4.8,4.,4.8
1979-07-20 18:21:21.260 ,3,0,0.,4.8,96.,4.8,20.,4.8,9.,4.8
1979-07-20 18:21:26.060 ,3,0,0.,4.8,94.,4.8,38.,4.8,7.,4.8
1979-07-20 18:21:30.860 ,3,0,0.,4.8,114.,4.8,26.,4.8,9.,4.8
1979-07-20 18:21:35.660 ,2,0,1.,4.8,116.,4.8,28.,4.8,8.,4.8
1979-07-20 18:21:40.460 ,2,0,0.,4.8,94.,4.8,27.,4.8,7.,4.8
1979-07-20 18:21:45.260 ,2,0,0.,4.8,47.,4.8,12.,4.8,8.,4.8
1979-07-20 18:21:50.060 ,2,0,0.,4.8,49.,4.8,24.,4.8,9.,4.8
1979-07-20 18:21:54.860 ,2,0,0.,4.8,38.,4.8,17.,4.8,5.,4.8
1979-07-20 18:21:59.660 ,2,0,0.,4.8,61.,4.8,12.,4.8,7.,4.8
1979-07-20 18:22:04.460 ,2,0,0.,4.8,45.,4.8,12.,4.8,5.,4.8
1979-07-20 18:22:09.260 ,2,0,0.,4.8,46.,4.8,10.,4.8,7.,4.8
1979-07-20 18:22:14.060 ,2,0,0.,4.8,42.,4.8,14.,4.8,8.,4.8
1979-07-20 18:22:18.860 ,2,0,0.,4.8,47.,4.8,11.,4.8,1.,4.8
1979-07-20 18:22:23.660 ,1,0,0.,4.8,34.,4.8,12.,4.8,9.,4.8
1979-07-20 18:22:28.460 ,1,0,0.,4.8,52.,4.8,13.,4.8,8.,4.8
1979-07-20 18:22:33.260 ,1,0,0.,4.8,9.,4.8,3.,4.8,3.,4.8
1979-07-20 18:22:38.060 ,1,0,0.,4.8,13.,4.8,4.,4.8,3.,4.8
1979-07-20 18:22:42.860 ,1,0,0.,4.8,12.,4.8,3.,4.8,2.,4.8
1979-07-20 18:22:47.660 ,1,0,0.,4.8,7.,4.8,3.,4.8,2.,4.8
1979-07-20 18:22:52.460 ,1,0,0.,4.8,14.,4.8,1.,4.8,3.,4.8
1979-07-20 18:22:57.260 ,1,0,0.,4.8,8.,4.8,4.,4.8,9.,4.8
1979-07-20 18:23:02.060 ,1,0,0.,4.8,14.,4.8,1.,4.8,3.,4.8
1979-07-20 18:23:06.860 ,1,0,0.,4.8,15.,4.8,4.,4.8,2.,4.8
1979-07-20 18:23:11.660 ,0,0,0.,4.8,19.,4.8,2.,4.8,3.,4.8
1979-07-20 18:23:16.460 ,0,0,0.,4.8,7.,4.8,0.,4.8,0.,4.8
1979-07-20 18:23:21.260 ,0,0,0.,4.8,8.,4.8,4.,4.8,1.,4.8
1979-07-20 18:23:26.060 ,0,0,0.,4.8,12.,4.8,0.,4.8,2.,4.8
1979-07-20 18:23:30.860 ,0,0,0.,4.8,6.,4.8,2.,4.8,1.,4.8
1979-07-20 18:23:35.660 ,0,0,0.,4.8,9.,4.8,0.,4.8,0.,4.8
1979-07-20 18:23:40.460 ,0,0,0.,4.8,10.,4.8,2.,4.8,1.,4.8
1979-07-20 18:23:45.260 ,0,0,0.,4.8,14.,4.8,1.,4.8,2.,4.8
1979-07-20 18:23:50.060 ,0,0,0.,4.8,12.,4.8,4.,4.8,2.,4.8
1979-07-20 18:23:54.860 ,0,0,0.,4.8,15.,4.8,6.,4.8,0.,4.8
1979-07-20 18:23:59.660 ,0,0,0.,4.8,7.,4.8,3.,4.8,2.,4.8
1979-07-20 18:24:04.460 ,0,0,0.,4.8,8.,4.8,2.,4.8,0.,4.8
1979-07-20 18:24:09.260 ,0,0,0.,4.8,9.,4.8,5.,4.8,5.,4.8
1979-07-20 18:24:14.060 ,0,0,0.,4.8,12.,4.8,3.,4.8,2.,4.8
1979-07-20 18:24:18.860 ,0,0,0.,4.8,12.,4.8,4.,4.8,0.,4.8
1979-07-20 18:24:23.660 ,0,0,0.,4.8,10.,4.8,2.,4.8,1.,4.8
1979-07-20 18:24:28.460 ,0,0,0.,4.8,8.,4.8,4.,4.8,1.,4.8
1979-07-20 18:24:33.260 ,0,0,0.,4.8,16.,4.8,4.,4.8,2.,4.8
1979-07-20 18:24:38.060 ,0,0,0.,4.8,5.,4.8,3.,4.8,0.,4.8
1979-07-20 18:24:42.860 ,0,0,0.,4.8,13.,4.8,4.,4.8,3.,4.8
1979-07-20 18:24:47.660 ,1,0,0.,4.8,11.,4.8,6.,4.8,3.,4.8
1979-07-20 18:24:52.460 ,1,0,0.,4.8,5.,4.8,3.,4.8,0.,4.8
1979-07-20 18:24:57.260 ,1,0,0.,4.8,12.,4.8,3.,4.8,2.,4.8
1979-07-20 18:25:02.060 ,1,0,0.,4.8,8.,4.8,6.,4.8,4.,4.8
1979-07-20 18:25:06.860 ,1,0,0.,4.8,9.,4.8,2.,4.8,3.,4.8
1979-07-20 18:25:11.660 ,1,0,0.,4.8,11.,4.8,7.,4.8,0.,4.8
1979-07-20 18:25:16.460 ,1,0,0.,4.8,12.,4.8,2.,4.8,1.,4.8
1979-07-20 18:25:21.260 ,1,0,0.,4.8,12.,4.8,3.,4.8,0.,4.8
1979-07-20 18:25:26.060 ,1,0,0.,4.8,18.,4.8,0.,4.8,3.,4.8
1979-07-20 18:25:30.860 ,1,0,0.,4.8,10.,4.8,7.,4.8,1.,4.8
1979-07-20 18:25:35.660 ,2,0,0.,4.8,11.,4.8,4.,4.8,3.,4.8
1979-07-20 18:25:40.460 ,2,0,0.,4.8,9.,4.8,7.,4.8,2.,4.8
1979-07-20 18:25:45.260 ,2,0,0.,4.8,49.,4.8,11.,4.8,8.,4.8
1979-07-20 18:25:50.060 ,2,0,0.,4.8,45.,4.8,13.,4.8,8.,4.8
1979-07-20 18:25:54.860 ,2,0,0.,4.8,43.,4.8,13.,4.8,8.,4.8
1979-07-20 18:25:59.660 ,2,0,0.,4.8,44.,4.8,13.,4.8,8.,4.8
1979-07-20 18:26:04.460 ,2,0,0.,4.8,34.,4.8,15.,4.8,6.,4.8
1979-07-20 18:26:09.260 ,2,0,0.,4.8,40.,4.8,19.,4.8,5.,4.8
1979-07-20 18:26:14.060 ,2,0,0.,4.8,48.,4.8,18.,4.8,8.,4.8
1979-07-20 18:26:18.860 ,2,0,0.,4.8,48.,4.8,24.,4.8,8.,4.8
1979-07-20 18:26:23.660 ,3,0,0.,4.8,51.,4.8,10.,4.8,14.,4.8
1979-07-20 18:26:28.460 ,3,0,0.,4.8,45.,4.8,21.,4.8,4.,4.8
1979-07-20 18:26:33.260 ,3,0,1.,4.8,114.,4.8,25.,4.8,17.,4.8
1979-07-20 18:26:38.060 ,3,0,0.,4.8,122.,4.8,31.,4.8,14.,4.8
1979-07-20 18:26:42.860 ,3,0,0.,4.8,102.,4.8,23.,4.8,8.,4.8
1979-07-20 18:26:47.660 ,3,0,0.,4.8,116.,4.8,31.,4.8,8.,4.8
1979-07-20 18:26:52.460 ,3,0,0.,4.8,128.,4.8,24.,4.8,7.,4.8
1979-07-20 18:26:57.260 ,3,0,0.,4.8,132.,4.8,29.,4.8,5.,4.8
1979-07-20 18:27:02.060 ,3,0,0.,4.8,126.,4.8,23.,4.8,5.,4.8
1979-07-20 18:27:06.860 ,3,0,0.,4.8,124.,4.8,28.,4.8,14.,4.8
1979-07-20 18:27:11.660 ,4,0,1.,4.8,120.,4.8,30.,4.8,3.,4.8
1979-07-20 18:27:16.460 ,4,0,0.,4.8,116.,4.8,23.,4.8,8.,4.8
1979-07-20 18:27:21.260 ,4,0,0.,4.8,10.,4.8,5.,4.8,2.,4.8
1979-07-20 18:27:26.060 ,4,0,0.,4.8,20.,4.8,1.,4.8,1.,4.8
1979-07-20 18:27:30.860 ,4,0,0.,4.8,6.,4.8,1.,4.8,5.,4.8
1979-07-20 18:27:35.660 ,4,0,0.,4.8,18.,4.8,5.,4.8,1.,4.8
1979-07-20 18:27:40.460 ,4,0,0.,4.8,14.,4.8,3.,4.8,1.,4.8
1979-07-20 18:27:45.260 ,4,0,0.,4.8,14.,4.8,1.,4.8,1.,4.8
1979-07-20 18:27:50.060 ,4,0,0.,4.8,6.,4.8,4.,4.8,1.,4.8
1979-07-20 18:27:54.860 ,4,0,0.,4.8,11.,4.8,2.,4.8,2.,4.8
1979-07-20 18:27:59.660 ,5,0,0.,4.8,18.,4.8,4.,4.8,1.,4.8
1979-07-20 18:28:04.460 ,5,0,0.,4.8,17.,4.8,6.,4.8,3.,4.8
1979-07-20 18:28:09.260 ,5,0,0.,4.8,13.,4.8,3.,4.8,1.,4.8
1979-07-20 18:28:14.060 ,5,0,0.,4.8,7.,4.8,2.,4.8,2.,4.8
1979-07-20 18:28:18.860 ,5,0,0.,4.8,8.,4.8,4.,4.8,0.,4.8
1979-07-20 18:28:23.660 ,5,0,0.,4.8,13.,4.8,4.,4.8,0.,4.8
1979-07-20 18:28:28.460 ,5,0,0.,4.8,13.,4.8,2.,4.8,2.,4.8
1979-07-20 18:28:33.260 ,5,0,0.,4.8,9.,4.8,4.,4.8,7.,4.8
1979-07-20 18:28:38.060 ,5,0,0.,4.8,18.,4.8,6.,4.8,3.,4.8
1979-07-20 18:28:42.860 ,5,0,0.,4.8,5.,4.8,3.,4.8,1.,4.8
1979-07-20 18:28:47.660 ,6,0,0.,4.8,7.,4.8,4.,4.8,2.,4.8
1979-07-20 18:28:52.460 ,6,0,0.,4.8,13.,4.8,2.,4.8,5.,4.8
1979-07-20 18:28:57.260 ,6,0,0.,4.8,10.,4.8,3.,4.8,1.,4.8
1979-07-20 18:29:02.060 ,6,0,0.,4.8,7.,4.8,1.,4.8,1.,4.8
1979-07-20 18:29:06.860 ,6,0,0.,4.8,7.,4.8,3.,4.8,3.,4.8
1979-07-20 18:29:11.660 ,6,0,0.,4.8,13.,4.8,6.,4.8,0.,4.8
1979-07-20 18:29:16.460 ,6,0,0.,4.8,10.,4.8,2.,4.8,1.,4.8
1979-07-20 18:29:21.260 ,6,0,0.,4.8,11.,4.8,3.,4.8,0.,4.8
1979-07-20 18:29:26.060 ,6,0,0.,4.8,7.,4.8,5.,4.8,3.,4.8
1979-07-20 18:29:30.860 ,6,0,0.,4.8,6.,4.8,4.,4.8,0.,4.8
1979-07-20 18:29:35.660 ,7,0,0.,4.8,7.,4.8,1.,4.8,2.,4.8
1979-07-20 18:29:40.460 ,7,0,0.,4.8,9.,4.8,1.,4.8,2.,4.8
1979-07-20 18:29:45.260 ,7,0,0.,4.8,1.,4.8,0.,4.8,0.,4.8
1979-07-20 18:29:50.060 ,7,0,0.,4.8,0.,4.8,0.,4.8,0.,4.8
1979-07-20 18:29:54.860 ,7,0,0.,4.8,0.,4.8,0.,4.8,0.,4.8
1979-07-20 18:29:59.660 ,7,0,0.,4.8,3.,4.8,0.,4.8,0.,4.8
1979-07-20 18:30:04.460 ,7,0,0.,4.8,0.,4.8,0.,4.8,0.,4.8
1979-07-20 18:30:09.260 ,7,0,0.,4.8,0.,4.8,0.,4.8,0.,4.8
1979-07-20 18:30:14.060 ,7,0,0.,4.8,0.,4.8,0.,4.8,0.,4.8
1979-07-20 18:30:18.860 ,7,0,0.,4.8,0.,4.8,0.,4.8,0.,4.8
1979-07-20 18:31:11.660 ,0,0,0.,4.8,1.,4.8,0.,4.8,0.,4.8
1979-07-20 18:31:16.460 ,0,0,0.,4.8,1.,4.8,0.,4.8,0.,4.8
1979-07-20 18:31:21.260 ,0,0,0.,4.8,12.,4.8,1.,4.8,3.,4.8
1979-07-20 18:31:26.060 ,0,0,0.,4.8,13.,4.8,1.,4.8,1.,4.8
1979-07-20 18:31:30.860 ,0,0,0.,4.8,6.,4.8,2.,4.8,0.,4.8
1979-07-20 18:31:35.660 ,0,0,0.,4.8,11.,4.8,2.,4.8,0.,4.8
1979-07-20 18:31:40.460 ,0,0,0.,4.8,4.,4.8,3.,4.8,3.,4.8
1979-07-20 18:31:45.260 ,0,0,0.,4.8,11.,4.8,1.,4.8,1.,4.8
1979-07-20 18:31:50.060 ,0,0,0.,4.8,11.,4.8,3.,4.8,4.,4.8
1979-07-20 18:31:54.860 ,0,0,0.,4.8,9.,4.8,3.,4.8,2.,4.8
1979-07-20 18:31:59.660 ,5,0,0.,4.8,9.,4.8,2.,4.8,0.,4.8
1979-07-20 18:32:04.450 ,5,0,0.,4.8,8.,4.8,3.,4.8,1.,4.8
1979-07-20 18:32:09.260 ,5,0,0.,4.8,11.,4.8,2.,4.8,2.,4.8
1979-07-20 18:32:14.060 ,5,0,0.,4.8,14.,4.8,5.,4.8,3.,4.8
1979-07-20 18:32:18.850 ,5,0,0.,4.8,13.,4.8,4.,4.8,3.,4.8
1979-07-20 18:32:23.660 ,5,0,0.,4.8,14.,4.8,2.,4.8,6.,4.8
1979-07-20 18:32:28.450 ,5,0,0.,4.8,14.,4.8,2.,4.8,2.,4.8
1979-07-20 18:32:33.260 ,5,0,0.,4.8,10.,4.8,6.,4.8,2.,4.8
1979-07-20 18:32:38.060 ,5,0,0.,4.8,13.,4.8,0.,4.8,0.,4.8
1979-07-20 18:32:42.850 ,5,0,0.,4.8,10.,4.8,3.,4.8,4.,4.8
1979-07-20 18:32:47.660 ,4,0,0.,4.8,13.,4.8,3.,4.8,1.,4.8
1979-07-20 18:32:52.450 ,4,0,0.,4.8,23.,4.8,1.,4.8,3.,4.8
1979-07-20 18:32:57.260 ,4,0,0.,4.8,35.,4.8,4.,4.8,2.,4.8
1979-07-20 18:33:02.060 ,4,0,0.,4.8,27.,4.8,7.,4.8,4.,4.8
1979-07-20 18:33:06.850 ,4,0,0.,4.8,32.,4.8,5.,4.8,3.,4.8
1979-07-20 18:33:11.660 ,4,0,0.,4.8,23.,4.8,9.,4.8,4.,4.8
1979-07-20 18:33:16.450 ,4,0,0.,4.8,25.,4.8,6.,4.8,3.,4.8
1979-07-20 18:33:21.260 ,4,0,0.,4.8,32.,4.8,5.,4.8,2.,4.8
1979-07-20 18:33:26.060 ,4,0,0.,4.8,26.,4.8,7.,4.8,7.,4.8
1979-07-20 18:33:30.850 ,4,0,0.,4.8,34.,4.8,5.,4.8,3.,4.8
1979-07-20 18:33:35.660 ,3,0,0.,4.8,28.,4.8,3.,4.8,5.,4.8
1979-07-20 18:33:40.450 ,3,0,0.,4.8,33.,4.8,3.,4.8,3.,4.8
1979-07-20 18:33:45.260 ,3,0,1.,4.8,188.,4.8,24.,4.8,12.,4.8
1979-07-20 18:33:50.060 ,3,0,0.,4.8,168.,4.8,28.,4.8,9.,4.8